Location: Cardiff
(53.7833°N, 113.6000°W)
Time: 08:11:47
(UTC+00:00)

PRISM - Visible Passes

Search period start: 02 December 2023 00:00
Search period end: 12 December 2023 00:00
Orbit: 523 x 542 km, 98.2° (Epoch: 01 December)

Date Brightness Start Highest point End Pass type
(mag) Time Alt. Az. Time Alt. Az. Time Alt. Az.
02 Dec ? 01:58:46 17° N 01:58:46 17° N 01:59:46 10° N visible
03 Dec ? 01:49:12 16° N 01:49:12 16° N 01:50:07 10° N visible
03 Dec ? 14:44:53 10° NE 14:48:01 23° E 14:51:06 10° SSE visible
04 Dec ? 01:39:36 15° N 01:39:36 15° N 01:40:24 10° N visible
04 Dec ? 14:35:29 10° NE 14:38:16 19° E 14:41:02 10° SE visible
05 Dec ? 01:29:57 14° N 01:29:57 14° N 01:30:38 10° N visible
05 Dec ? 14:26:10 10° NE 14:28:28 15° E 14:30:46 10° SE visible
06 Dec ? 01:20:15 13° N 01:20:15 13° N 01:20:47 10° N visible
06 Dec ? 14:17:00 10° ENE 14:18:37 12° E 14:20:14 10° ESE visible
07 Dec ? 01:10:30 12° NNE 01:10:30 12° NNE 01:10:50 10° N visible
08 Dec ? 01:00:42 10° NNE 01:00:42 10° NNE 01:00:48 10° NNE visible
